Location: Kitt Peak
(31.9514°N, 111.6156°W)
Time: 14:40:58
(UTC-07:00)

ISS - Pass Details

Date: 05 December 2021
Orbit: 413 x 422 km, 51.6° (Epoch: 23 January)

Event Time Altitude Azimuth Distance (km) Brightness Sun altitude
Rises 18:27:13 0° 329° (NNW) 2,371 0.2 -13.7°
Reaches altitude 10° 18:29:49 10° 350° (N) 1,501 -1.0 -14.2°
Enters shadow 18:31:38 17° 21° (NNE) 1,137 -1.9 -14.5°
